Regional Weather Roundup
Issued by NWS Charleston, WV

Home | Current Version | Previous Version | Graphics & Text | Print | Product List | Glossary On
Versions: 1 2 3 4 5 6 7 8 9 10 11 12 13 14 15 16 17 18 19 20 21 22 23 24 25 26 27 28 29 30 31 32 33 34 35 36 37 38 39 40 41 42 43 44 45 46 47 48 49 50
000
ASUS41 KRLX 152110
RWRRLX
West Virginia Regional Weather Roundup
National Weather Service Charleston WV
400 PM EST SUN JAN 15 2017

Note: "fair" indicates few or no clouds below 12,000 feet with no
significant weather and/or obstructions to visibility.

WVZ003-152200-
Northern Panhandle of West Virginia

CITY           SKY/WX    TMP DP  RH WIND       PRES   REMARKS
WHEELING       CLOUDY    33  24  69 CALM      30.36R
$$

WVZ009-152200-
Northwest West Virginia

CITY           SKY/WX    TMP DP  RH WIND       PRES   REMARKS
PARKERSBURG    CLOUDY    38  31  76 N5        30.38R
$$

WVZ006-152200-
Western West Virginia

CITY           SKY/WX    TMP DP  RH WIND       PRES   REMARKS
HUNTINGTON     CLOUDY    40  37  89 CALM      30.34R
$$

WVZ015-152200-
West Central West Virginia

CITY           SKY/WX    TMP DP  RH WIND       PRES   REMARKS
CHARLESTON     CLOUDY    42  37  82 E3        30.32S
$$

WVZ022-031-152200-
North Central West Virginia

CITY           SKY/WX    TMP DP  RH WIND       PRES   REMARKS
CLARKSBURG     CLOUDY    38  34  85 N5        30.33R
MORGANTOWN     CLOUDY    38  30  73 N3        30.34S
$$

WVZ025-035-042-045-152200-
Southern West Virginia

CITY           SKY/WX    TMP DP  RH WIND       PRES   REMARKS
BECKLEY        CLOUDY    42  41  96 CALM      30.27R FOG
LOGAN          LGT RAIN  41  41 100 CALM      30.29S VSB 1/2
BLUEFIELD      LGT RAIN  48  46  93 CALM      30.26S
LEWISBURG      CLOUDY    44  40  86 SW5       30.27R
$$

WVZ047-152200-
Northern Mountains of West Virginia

CITY           SKY/WX    TMP DP  RH WIND       PRES   REMARKS
ELKINS         CLOUDY    41  35  79 CALM      30.29F
$$

WVZ052-152200-
Eastern Panhandle of West Virginia

CITY           SKY/WX    TMP DP  RH WIND       PRES   REMARKS
MARTINSBURG    CLOUDY    39  19  44 N7        30.35R
PETERSBURG     CLOUDY    44  37  78 CALM      30.32F
$$




USA.gov is the U.S. government's official web portal to all federal, state and local government web resources and services.